Date String (YYYY-MM-DD hh:mm:ss) UTC,Instrument flags,Ambient pressure (hPa),Sample flow (lpm),Bypass flow (lpm),Sample temperature (°C),Ambient temperature (°C),ASC tube jacket temperature (°C),LED temperature (°C),Box temperature (°C),Sample RH (%),Span deviation,Mass concentration (μg/m³),Mass concentration (μg/m³),Mass concentration (μg/m³)
DateTimeUTC,F1_M11,P_M11,Q1_M11,Q2_M11,T1_M11,T2_M11,T3_M11,T4_M11,T5_M11,U1_M11,ZSPAN_M11,X0_M11,X2_M11,X1_M11
2022-08-06 01:00:00,,0825.2,5.01,0.00,29.2,27.5,00.0,38.0,31.1,30.0,0000.0,0015.71,0005.28,0004.30
2022-08-06 01:01:00,,0825.2,4.99,0.00,29.2,27.7,00.0,38.0,31.1,30.1,0000.0,0016.23,0005.30,0004.31
2022-08-06 01:02:00,,0825.2,5.00,0.00,29.2,27.9,00.0,38.0,31.2,30.2,0000.0,0016.21,0005.31,0004.31
2022-08-06 01:03:00,,0825.2,5.01,0.00,29.3,28.1,00.0,38.0,31.3,30.2,0000.0,0016.25,0005.32,0004.31
2022-08-06 01:04:00,,0825.2,4.99,0.00,29.3,28.2,00.0,38.0,31.3,30.4,0000.0,0015.44,0005.32,0004.31
2022-08-06 01:05:00,,0825.2,5.00,0.00,29.4,28.3,00.0,38.0,31.4,30.4,0000.0,0015.72,0005.35,0004.30
2022-08-06 01:06:00,,0825.2,5.00,0.00,29.4,27.9,00.0,38.0,31.3,30.6,0000.0,0016.01,0005.33,0004.30
2022-08-06 01:07:00,,0825.2,5.00,0.00,29.3,27.2,00.0,38.0,31.1,30.8,0000.0,0016.59,0005.28,0004.28
2022-08-06 01:08:00,,0825.2,5.00,0.00,29.3,27.0,00.0,38.0,31.1,31.1,0000.0,0016.15,0005.24,0004.26
2022-08-06 01:09:00,,0825.2,5.01,0.00,29.2,27.0,00.0,38.0,30.9,31.4,0000.0,0015.66,0005.29,0004.26
2022-08-06 01:10:00,,0825.2,5.00,0.00,29.2,27.2,00.0,37.9,30.9,31.6,0000.0,0014.93,0005.29,0004.27
2022-08-06 01:11:00,,0825.3,5.00,0.00,29.2,27.3,00.0,37.9,31.0,31.7,0000.0,0014.24,0005.33,0004.29
2022-08-06 01:12:00,,0825.3,4.99,0.00,29.2,27.5,00.0,37.9,31.1,31.7,0000.0,0013.20,0005.35,0004.30
2022-08-06 01:13:00,,0825.3,5.02,0.00,29.2,27.7,00.0,38.0,31.1,31.6,0000.0,0013.08,0005.40,0004.31
2022-08-06 01:14:00,,0825.3,4.99,0.00,29.2,27.9,00.0,38.0,31.2,31.6,0000.0,0012.72,0005.42,0004.33
2022-08-06 01:15:00,,0825.3,5.00,0.00,29.3,28.1,00.0,38.0,31.3,31.6,0000.0,0012.45,0005.42,0004.34
2022-08-06 01:16:00,,0825.4,5.00,0.00,29.3,28.2,00.0,38.0,31.3,31.5,0000.0,0012.21,0005.41,0004.36
2022-08-06 01:17:00,,0825.3,5.00,0.00,29.4,28.4,00.0,38.0,31.4,31.5,0000.0,0012.20,0005.45,0004.36
2022-08-06 01:18:00,,0825.4,5.02,0.00,29.4,28.1,00.0,38.0,31.3,31.5,0000.0,0011.65,0005.49,0004.38
2022-08-06 01:19:00,,0825.3,4.99,0.00,29.3,27.4,00.0,38.0,31.1,31.7,0000.0,0012.83,0005.57,0004.40
2022-08-06 01:20:00,,0825.3,5.01,0.00,29.3,27.0,00.0,38.0,31.1,31.8,0000.0,0012.83,0005.60,0004.42
2022-08-06 01:21:00,,0825.4,4.99,0.00,29.2,27.0,00.0,38.0,31.0,31.9,0000.0,0012.96,0005.62,0004.43
2022-08-06 01:22:00,,0825.3,5.00,0.00,29.2,27.1,00.0,37.9,31.0,31.9,0000.0,0013.06,0005.57,0004.43
2022-08-06 01:23:00,,0825.3,5.00,0.00,29.2,27.3,00.0,37.9,31.0,31.8,0000.0,0013.44,0005.61,0004.43
2022-08-06 01:24:00,,0825.3,5.00,0.00,29.2,27.5,00.0,38.0,31.1,31.8,0000.0,0013.44,0005.63,0004.44
2022-08-06 01:25:00,,0825.3,5.00,0.00,29.2,27.7,00.0,38.0,31.1,31.8,0000.0,0013.21,0005.64,0004.45
2022-08-06 01:26:00,,0825.4,5.00,0.00,29.2,27.9,00.0,38.0,31.2,31.7,0000.0,0013.40,0005.66,0004.45
2022-08-06 01:27:00,,0825.4,5.00,0.00,29.3,28.0,00.0,38.0,31.3,31.7,0000.0,0014.50,0005.75,0004.45
2022-08-06 01:28:00,,0825.4,5.00,0.00,29.3,28.2,00.0,38.0,31.3,31.7,0000.0,0014.79,0005.77,0004.45
2022-08-06 01:29:00,,0825.4,5.00,0.00,29.4,28.3,00.0,38.0,31.4,31.6,0000.0,0014.59,0005.76,0004.46
2022-08-06 01:30:00,,0825.4,4.99,0.00,29.4,28.2,00.0,38.1,31.4,31.6,0000.0,0014.00,0005.75,0004.45
2022-08-06 01:31:00,,0825.4,5.00,0.00,29.4,27.5,00.0,38.0,31.1,31.8,0000.0,0014.34,0005.73,0004.45
2022-08-06 01:32:00,,0825.4,5.00,0.00,29.3,27.0,00.0,38.0,31.1,31.9,0000.0,0013.83,0005.77,0004.44
2022-08-06 01:33:00,,0825.5,5.00,0.00,29.3,27.0,00.0,38.0,31.0,32.1,0000.0,0013.87,0005.83,0004.43
2022-08-06 01:34:00,,0825.5,5.00,0.00,29.2,27.1,00.0,38.0,30.9,32.3,0000.0,0014.42,0005.84,0004.44
2022-08-06 01:35:00,,0825.4,5.01,0.00,29.2,27.2,00.0,38.0,30.9,32.4,0000.0,0014.51,0005.84,0004.43
2022-08-06 01:36:00,,0825.5,5.00,0.00,29.2,27.4,00.0,38.0,31.0,32.5,0000.0,0015.01,0005.87,0004.42
2022-08-06 01:37:00,,0825.4,5.01,0.00,29.2,27.6,00.0,38.0,31.1,32.4,0000.0,0015.63,0005.93,0004.42
2022-08-06 01:38:00,,0825.5,4.99,0.00,29.2,27.8,00.0,38.0,31.2,32.5,0000.0,0014.94,0005.88,0004.42
2022-08-06 01:39:00,,0825.5,5.00,0.00,29.3,28.0,00.0,38.0,31.2,32.2,0000.0,0014.79,0005.85,0004.42
2022-08-06 01:40:00,,0825.5,5.02,0.00,29.3,28.1,00.0,38.0,31.3,31.9,0000.0,0015.06,0005.84,0004.40
2022-08-06 01:41:00,,0825.5,5.00,0.00,29.3,28.3,00.0,38.0,31.4,31.8,0000.0,0015.01,0005.78,0004.37
2022-08-06 01:42:00,,0825.5,5.00,0.00,29.4,28.3,00.0,38.1,31.4,31.8,0000.0,0014.79,0005.75,0004.35
2022-08-06 01:43:00,,0825.6,5.00,0.00,29.4,27.7,00.0,38.0,31.2,31.5,0000.0,0015.05,0005.70,0004.32
2022-08-06 01:44:00,,0825.6,5.00,0.00,29.3,27.1,00.0,38.0,31.1,31.6,0000.0,0014.61,0005.58,0004.29
2022-08-06 01:45:00,,0825.6,5.00,0.00,29.3,26.9,00.0,38.0,31.1,31.7,0000.0,0013.82,0005.52,0004.26
2022-08-06 01:46:00,,0825.6,5.01,0.00,29.2,27.0,00.0,38.0,30.9,31.8,0000.0,0013.97,0005.48,0004.23
2022-08-06 01:47:00,,0825.5,4.99,0.00,29.2,27.2,00.0,38.0,31.0,31.8,0000.0,0014.07,0005.44,0004.20
2022-08-06 01:48:00,,0825.6,5.00,0.00,29.2,27.4,00.0,38.0,31.0,31.9,0000.0,0014.24,0005.39,0004.16
2022-08-06 01:49:00,,0825.6,5.00,0.00,29.2,27.5,00.0,38.0,31.1,32.0,0000.0,0014.71,0005.34,0004.13
2022-08-06 01:50:00,,0825.6,5.00,0.00,29.2,27.7,00.0,38.0,31.1,32.0,0000.0,0015.18,0005.32,0004.10
2022-08-06 01:51:00,,0825.7,5.02,0.00,29.2,27.9,00.0,38.0,31.2,32.0,0000.0,0014.72,0005.28,0004.09
2022-08-06 01:52:00,,0825.7,5.00,0.00,29.3,28.1,00.0,38.0,31.3,32.0,0000.0,0014.50,0005.27,0004.08
2022-08-06 01:53:00,,0825.7,5.00,0.00,29.3,28.2,00.0,38.0,31.3,32.0,0000.0,0014.26,0005.28,0004.08
2022-08-06 01:54:00,,0825.7,4.99,0.00,29.4,28.3,00.0,38.1,31.4,31.9,0000.0,0014.05,0005.34,0004.10
2022-08-06 01:55:00,,0825.7,5.00,0.00,29.4,27.8,00.0,38.0,31.3,31.8,0000.0,0014.70,0005.44,0004.13
2022-08-06 01:56:00,,0825.7,5.00,0.00,29.3,27.2,00.0,38.0,31.1,31.7,0000.0,0015.40,0005.46,0004.14
2022-08-06 01:57:00,,0825.7,5.00,0.00,29.3,27.0,00.0,38.0,31.1,31.7,0000.0,0015.16,0005.49,0004.15
2022-08-06 01:58:00,,0825.7,5.00,0.00,29.2,27.0,00.0,38.0,30.9,31.8,0000.0,0015.20,0005.56,0004.16
2022-08-06 01:59:00,,0825.7,5.01,0.00,29.1,27.1,00.0,37.9,30.9,31.7,0000.0,0014.41,0005.57,0004.16
